Wind_Speed
8 8 8 9 10 11 13 14 16 18 19 19 20 20 20 20 20 21 22 22 23 22 22 22 21 20 20 19 18 18 17 16 15 14 14 14 13 13 13 12 12 12
7 7 6 6 7 8 9 10 12 14 16 18 19 19 19 19 19 19 20 20 21 22 22 22 23 22 22 21 20 20 19 18 17 16 15 15 14 14 13 12 11 11
7 7 6 5 5 5 6 7 8 10 12 15 17 18 19 19 19 19 19 19 19 20 20 21 22 22 23 23 23 22 21 20 19 19 18 17 16 15 14 13 12 11
7 7 6 6 5 4 3 4 5 7 9 11 13 15 17 17 18 18 18 18 18 18 18 19 20 20 21 22 22 22 22 22 22 21 21 20 19 18 17 16 15 14
6 7 7 6 6 5 3 3 4 4 6 8 9 11 13 14 15 16 17 17 17 17 17 17 17 18 18 19 20 20 21 21 21 22 22 21 21 21 20 19 18 17
7 7 7 7 6 5 4 4 4 4 5 6 7 8 9 10 12 13 14 15 15 15 16 16 16 16 16 16 17 18 18 19 19 20 20 20 20 20 20 20 19 19
8 7 8 7 6 5 5 4 4 4 4 5 6 7 7 7 8 9 10 11 12 13 14 14 14 14 14 14 14 15 15 16 17 17 17 18 18 18 18 19 19 18
12 9 8 8 7 6 6 5 4 4 5 4 5 6 7 6 6 5 6 7 8 10 10 11 11 12 12 12 12 12 13 13 14 14 15 15 16 16 17 17 17 17
14 11 9 9 9 8 8 8 5 4 4 3 2 3 5 5 5 4 3 3 4 5 6 7 8 9 9 9 10 10 10 11 11 12 12 13 13 13 14 14 15 16
16 13 12 11 11 11 11 10 8 4 3 2 2 1 2 3 4 5 4 3 1 2 3 4 5 6 6 7 7 7 7 8 8 9 9 10 10 11 11 12 12 13
20 16 14 13 13 13 13 12 11 7 3 1 3 2 1 2 3 4 5 5 4 2 2 3 4 4 5 5 5 5 5 5 5 6 6 7 8 8 9 10 10 11
23 20 17 16 15 16 15 13 11 9 6 4 4 4 3 2 2 3 5 5 5 5 5 5 5 6 5 5 5 4 4 3 3 3 4 5 5 6 7 8 9 10
25 25 22 20 18 18 17 15 12 10 9 8 7 6 5 4 4 4 5 5 5 5 6 6 6 7 7 7 6 5 4 3 2 2 2 3 4 5 6 6 7 8
28 28 25 23 22 21 20 19 16 13 12 12 11 10 9 8 6 6 6 7 6 5 5 6 7 8 8 8 7 6 5 4 4 3 3 3 4 5 6 6 7 7
31 31 30 27 26 25 24 23 21 18 16 15 14 14 14 13 10 9 9 8 8 7 6 8 8 9 10 11 11 9 7 5 4 3 3 3 3 4 5 6 7 7
35 35 34 33 31 29 27 26 25 24 21 19 18 18 17 16 15 14 14 12 11 9 9 9 10 10 11 12 13 13 11 9 7 5 3 3 3 3 4 5 6 7
37 37 37 37 34 32 29 27 26 27 26 24 23 21 20 18 18 18 18 17 15 12 11 11 11 11 11 12 13 14 14 14 13 11 9 7 5 4 5 5 6 7
36 37 38 37 36 34 32 29 27 28 28 27 26 24 23 22 21 21 21 21 19 17 14 14 14 14 12 13 14 15 16 16 16 15 14 12 9 7 7 7 8 9
37 35 33 32 34 35 34 33 31 29 29 30 29 28 28 27 25 24 23 23 22 20 17 17 17 17 16 17 18 17 17 17 18 17 15 13 12 12 11 10 10 11
37 34 31 33 34 34 34 35 35 34 33 32 32 31 31 31 30 27 26 25 24 22 21 21 21 20 20 22 22 20 18 18 19 20 19 17 15 15 15 14 14 13
40 38 38 38 37 35 33 33 35 37 36 35 35 35 34 34 34 32 29 28 26 24 24 25 25 24 24 25 25 23 20 19 20 21 22 22 20 17 15 16 16 16
43 43 42 40 37 34 33 33 34 35 36 37 38 39 39 37 37 36 33 31 29 29 29 29 28 27 27 28 28 26 24 22 21 21 22 24 24 21 18 17 19 19
44 43 42 40 38 36 36 38 37 37 39 41 41 42 42 40 38 37 37 35 33 32 33 33 32 30 29 30 30 29 26 24 23 23 23 25 27 25 22 20 21 22
47 46 45 44 43 42 42 44 44 42 42 43 43 44 44 42 40 39 39 39 37 36 35 36 36 34 33 32 32 30 28 27 26 26 27 28 29 27 25 24 24 24
50 50 49 48 48 47 47 48 48 48 46 45 45 46 45 44 43 41 41 41 41 39 37 38 39 38 36 35 34 33 31 30 30 29 30 32 31 30 29 27 25 24
57 55 53 52 52 52 52 51 50 51 52 52 52 51 49 49 48 44 43 44 44 42 40 39 40 40 38 37 37 36 36 35 34 33 34 34 34 34 32 29 26 25
Wind_Direction
58 56 46 35 32 36 40 42 45 50 54 57 59 59 60 63 64 65 66 67 67 68 69 71 71 71 72 73 73 73 72 73 74 75 78 79 81 83 85 86 85 83
42 46 49 43 30 27 33 37 41 44 48 53 57 59 58 59 61 62 63 64 65 65 66 67 69 69 69 70 70 71 70 70 69 69 70 71 73 75 77 78 77 75
24 21 28 37 35 24 20 25 34 39 42 46 52 57 57 57 58 59 61 61 62 63 63 64 65 66 67 67 67 68 68 68 68 67 66 66 66 67 67 67 66 65
12 6 6 13 19 22 14 7 14 29 38 41 46 52 55 56 56 57 59 59 60 60 61 61 62 63 63 65 65 66 66 66 66 66 65 64 64 63 62 62 60 58
348 349 353 357 358 358 2 358 351 3 24 35 41 49 52 53 53 53 55 57 58 59 59 58 59 60 60 60 62 62 62 62 62 62 62 62 62 62 61 61 60 58
319 326 333 339 341 338 335 341 342 341 359 17 28 40 48 52 51 49 50 52 54 56 57 56 56 56 57 57 58 59 59 59 59 59 59 58 58 57 57 57 57 57
298 306 312 315 316 316 308 310 323 324 330 352 5 14 28 39 46 47 48 49 49 50 51 53 53 53 52 52 53 53 54 54 55 55 55 55 54 53 52 51 51 50
286 290 294 296 298 298 289 282 292 300 300 321 344 349 357 9 22 34 43 48 49 48 46 47 48 48 48 48 47 46 46 48 49 50 50 50 50 50 48 47 45 44
277 279 278 277 281 284 280 272 267 277 278 279 316 331 329 335 342 350 9 41 53 52 48 46 46 44 43 44 44 41 38 38 40 42 42 42 42 43 43 42 41 39
263 265 266 265 267 271 274 271 258 248 259 252 237 264 298 306 312 315 317 327 11 53 53 49 49 46 41 39 40 40 36 32 30 31 32 32 31 31 32 32 32 31
253 253 253 255 256 257 266 274 267 248 240 250 241 239 244 279 303 306 305 309 318 339 10 29 37 41 42 37 34 35 35 31 24 20 19 18 17 17 16 17 17 18
253 250 248 250 252 252 254 267 274 265 255 254 255 251 243 253 293 306 302 302 310 318 328 342 1 13 21 27 28 26 24 22 17 6 359 356 357 357 358 360 360 1
250 250 251 253 255 255 251 253 261 265 260 256 255 254 248 245 260 284 289 290 296 303 311 319 329 342 351 0 9 12 11 5 356 345 336 330 330 333 336 340 344 345
246 246 249 256 259 258 256 251 248 248 254 257 257 257 256 249 248 263 279 284 285 290 305 315 316 320 324 329 336 346 357 359 354 346 339 333 328 325 325 326 327 329
245 245 248 257 262 260 257 253 247 241 243 250 256 262 264 260 256 263 273 278 277 278 296 313 315 312 311 310 311 315 321 327 333 340 349 347 338 328 323 321 318 315
245 246 249 256 260 259 256 253 247 242 240 241 247 256 262 264 265 267 269 272 273 271 281 296 302 302 303 307 310 309 308 306 301 300 316 337 348 341 327 314 308 303
246 249 253 255 255 253 253 250 247 244 243 243 244 247 252 256 261 263 264 267 269 271 274 280 281 281 287 300 308 309 310 310 308 305 305 308 319 339 342 331 319 309
248 252 255 253 249 247 247 246 245 245 245 247 249 249 249 249 251 255 258 261 264 267 271 274 271 267 271 283 295 300 305 309 310 308 308 306 302 304 318 328 330 329
250 251 251 247 244 246 248 247 247 248 248 250 252 253 252 251 249 249 252 256 259 261 264 268 269 266 267 275 284 291 297 303 303 300 302 305 301 295 297 305 315 325
246 244 242 238 236 241 247 250 252 253 252 254 255 255 254 253 252 250 248 249 252 254 256 260 263 263 264 272 280 285 291 297 299 296 296 298 298 295 295 297 300 308
240 239 238 237 237 240 244 248 251 253 254 257 258 258 256 254 253 251 247 244 244 245 248 251 254 255 258 264 271 277 282 287 292 293 294 294 293 291 291 293 293 295
238 237 236 237 241 244 243 243 245 247 248 249 251 253 254 253 252 250 246 243 242 242 244 245 247 250 254 258 263 268 271 274 279 283 286 288 288 286 286 289 290 289
233 233 236 238 239 239 237 235 234 236 239 239 240 245 250 251 250 249 247 244 243 243 244 244 244 246 249 253 258 261 262 265 270 273 274 276 278 277 279 285 288 286
233 233 236 237 235 232 232 231 230 231 235 238 240 243 246 246 245 245 245 243 242 243 244 244 245 246 246 249 253 254 254 258 263 266 268 269 268 267 272 280 284 282
234 233 232 231 230 229 229 230 231 230 233 237 238 239 242 243 241 241 242 242 242 244 245 244 243 245 247 250 251 250 249 252 256 259 263 266 265 263 267 275 279 278
231 231 228 228 228 228 228 229 230 230 231 234 234 232 233 237 239 238 239 240 241 243 245 244 240 241 246 250 250 249 248 249 251 254 258 262 263 262 265 271 274 274
Height
11017 11017 11017 11017 11017 11016 11016 11015 11015 11015 11014 11014 11013 11013 11012 11012 11011 11011 11010 11010 11009 11009 11008 11007 11007 11007 11006 11006 11006 11006 11005 11005 11005 11004 11004 11003 11002 11002 11002 11001 11001 11000
11017 11017 11017 11017 11017 11017 11016 11016 11016 11016 11016 11016 11015 11015 11014 11014 11013 11012 11012 11012 11011 11011 11011 11010 11009 11009 11008 11008 11008 11008 11007 11007 11007 11007 11006 11006 11005 11004 11004 11004 11003 11002
11018 11018 11018 11018 11017 11017 11017 11017 11018 11018 11018 11018 11017 11016 11016 11015 11015 11014 11014 11013 11013 11013 11013 11012 11011 11011 11011 11010 11010 11010 11009 11009 11009 11009 11008 11008 11007 11007 11006 11006 11005 11005
11018 11018 11018 11018 11018 11018 11018 11018 11019 11019 11019 11019 11018 11018 11017 11017 11016 11016 11015 11015 11015 11015 11014 11014 11014 11013 11013 11012 11012 11012 11011 11011 11011 11010 11010 11010 11009 11009 11008 11008 11007 11007
11017 11017 11018 11018 11018 11018 11018 11019 11019 11019 11019 11019 11019 11019 11018 11018 11018 11018 11017 11017 11016 11016 11016 11016 11015 11015 11014 11014 11014 11013 11013 11012 11012 11012 11011 11011 11011 11010 11010 11009 11008 11008
11017 11017 11017 11018 11018 11018 11018 11019 11019 11020 11020 11020 11020 11019 11019 11019 11019 11019 11019 11018 11018 11018 11017 11017 11016 11016 11016 11015 11015 11014 11014 11014 11013 11013 11013 11012 11012 11012 11011 11010 11010 11009
11016 11016 11017 11017 11017 11018 11018 11018 11019 11019 11019 11020 11020 11020 11020 11019 11019 11019 11019 11019 11019 11019 11018 11018 11017 11017 11016 11016 11016 11015 11015 11015 11014 11014 11014 11014 11013 11013 11012 11011 11010 11010
11016 11016 11016 11017 11017 11017 11017 11017 11018 11018 11019 11019 11020 11020 11020 11020 11019 11019 11019 11019 11019 11019 11019 11019 11018 11018 11017 11017 11017 11016 11016 11016 11015 11015 11015 11014 11014 11014 11013 11012 11011 11010
11016 11016 11016 11016 11016 11016 11016 11016 11016 11017 11018 11018 11019 11019 11020 11020 11019 11019 11019 11018 11018 11018 11018 11019 11018 11018 11018 11017 11017 11017 11017 11017 11016 11016 11015 11015 11015 11014 11013 11013 11012 11011
11015 11015 11015 11015 11015 11015 11015 11015 11016 11016 11017 11017 11018 11018 11019 11019 11019 11019 11018 11018 11018 11017 11017 11018 11018 11018 11018 11018 11018 11018 11017 11017 11017 11016 11016 11015 11015 11014 11014 11013 11012 11011
11013 11013 11013 11013 11013 11014 11014 11015 11015 11016 11016 11016 11017 11017 11017 11018 11017 11018 11018 11018 11018 11017 11017 11017 11017 11017 11017 11017 11017 11017 11017 11017 11017 11016 11016 11015 11014 11014 11013 11013 11012 11012
11011 11011 11011 11011 11011 11012 11013 11014 11015 11015 11015 11016 11016 11016 11016 11017 11017 11017 11017 11017 11017 11017 11017 11017 11017 11017 11017 11017 11016 11016 11016 11016 11015 11015 11015 11014 11014 11013 11013 11013 11012 11012
11009 11009 11009 11010 11010 11011 11012 11013 11014 11014 11015 11015 11015 11015 11015 11016 11016 11016 11016 11016 11016 11016 11016 11017 11017 11017 11017 11017 11016 11016 11015 11015 11014 11014 11013 11013 11013 11013 11012 11012 11012 11012
11006 11007 11007 11008 11008 11009 11010 11011 11012 11012 11013 11013 11013 11013 11013 11014 11014 11014 11014 11014 11015 11015 11015 11015 11015 11016 11016 11016 11016 11015 11015 11014 11013 11013 11012 11012 11012 11011 11011 11011 11012 11012
11001 11003 11005 11005 11006 11007 11008 11009 11009 11010 11011 11011 11011 11011 11011 11011 11011 11012 11013 11013 11013 11013 11013 11013 11014 11014 11014 11014 11014 11014 11014 11013 11013 11012 11012 11011 11011 11011 11010 11010 11011 11011
10996 10999 11000 11002 11003 11004 11005 11006 11007 11008 11008 11008 11009 11009 11008 11009 11009 11009 11010 11011 11011 11012 11012 11012 11012 11012 11012 11012 11012 11013 11013 11013 11012 11012 11011 11010 11010 11009 11009 11009 11009 11009
10992 10994 10995 10997 10999 11000 11001 11002 11003 11005 11005 11006 11006 11006 11006 11006 11006 11007 11007 11008 11009 11009 11010 11010 11010 11010 11010 11010 11010 11010 11011 11011 11011 11011 11010 11010 11009 11009 11008 11008 11008 11008
10988 10990 10991 10992 10994 10995 10997 10998 11000 11001 11002 11003 11004 11004 11004 11004 11004 11004 11004 11005 11006 11006 11007 11008 11007 11007 11007 11007 11008 11008 11008 11009 11009 11009 11009 11009 11009 11008 11008 11007 11007 11007
10984 10986 10987 10987 10989 10991 10992 10994 10996 10998 10999 11000 11000 11001 11002 11002 11001 11001 11002 11002 11003 11004 11005 11005 11005 11005 11005 11005 11005 11006 11006 11007 11007 11008 11008 11008 11008 11007 11007 11007 11006 11006
10979 10981 10981 10982 10983 10985 10988 10990 10993 10995 10995 10996 10996 10996 10997 10998 10998 10999 10999 10999 11000 11001 11002 11002 11003 11003 11004 11003 11004 11004 11004 11005 11005 11006 11006 11006 11006 11006 11006 11006 11005 11005
10973 10974 10974 10975 10978 10982 10986 10988 10990 10991 10991 10991 10990 10990 10991 10992 10993 10995 10995 10996 10997 10998 10998 10999 11000 11000 11001 11001 11001 11002 11002 11002 11003 11003 11004 11004 11004 11004 11004 11004 11004 11004
10966 10967 10968 10971 10975 10980 10984 10985 10986 10987 10986 10985 10983 10982 10983 10986 10988 10989 10991 10992 10993 10994 10994 10995 10996 10997 10998 10998 10998 10999 10999 11000 11000 11001 11001 11002 11002 11002 11001 11001 11001 11001
10961 10962 10965 10968 10972 10975 10976 10977 10979 10979 10978 10977 10977 10977 10978 10981 10983 10985 10986 10988 10989 10989 10990 10991 10992 10993 10994 10995 10995 10996 10996 10997 10997 10998 10998 10999 10999 10999 10999 10998 10998 10999
10957 10959 10961 10963 10964 10965 10966 10968 10971 10972 10972 10972 10974 10974 10974 10976 10978 10979 10981 10982 10983 10985 10986 10987 10987 10988 10989 10990 10991 10991 10992 10993 10993 10994 10994 10995 10995 10995 10995 10995 10995 10996
10949 10951 10953 10954 10956 10957 10958 10960 10963 10966 10968 10968 10968 10969 10970 10972 10973 10974 10975 10977 10978 10980 10981 10982 10982 10983 10984 10985 10986 10987 10987 10988 10988 10989 10990 10991 10991 10992 10992 10992 10992 10992
10937 10941 10945 10947 10949 10950 10950 10953 10957 10960 10962 10961 10961 10963 10965 10966 10967 10969 10970 10971 10973 10975 10976 10976 10977 10978 10979 10980 10981 10982 10983 10983 10984 10984 10985 10986 10987 10988 10988 10988 10988 10988